Flag for U.S.A. Weather past 2 weeks in Augusta, Maine, U.S.A.

Now
15 °F

Sunny.


Feels Like: 0 °F
Forecast: -2 / 17 °F
Wind: 14 mph from West

Location: Augusta State Airport

Current Time: Feb 1, 2015 at 4:28:22 PM

Latest Report: Feb 1, 2015 at 3:53 PM


Visibility: 10 mi

Pressure: 30.07 "Hg

Humidity: 33%

Dew point: -9 °F

Location of AugustaLocation

Historic Weather in Augusta — Graph

°F

Augusta temperature yesterday

Maximum temperature yesterday: 18 °F (at 12:53 AM)
Minimum temperature yesterday: 4 °F (at 8:53 PM)
Average temperature yesterday: 12 °F

Past Weeks' High & Low Weather Summary

 TemperatureHumidityPressure
High47 °F (Jan 19, 1:53 AM)100% (Jan 18, 4:53 PM)30.34 "Hg (Jan 18, 4:53 PM)
Low0 °F (Jan 29, 7:53 AM)27% (Jan 17, 3:53 PM)29.13 "Hg (Jan 24, 9:53 PM)
Average20 °F64%29.90 "Hg
* Reported Jan 17 2:53 PM — Feb 1 2:53 PM, Augusta, Weather by CustomWeather, © 2014

Note: Actual official high and low records may vary slightly from our data, if they occured in-between our weather recording intervals... More about our weather records

Advertising

Augusta weather history for previous 24 hours

 ConditionsComfort  
Time TempWeatherWind HumidityBarometerVisibility
2:53 PM
Feb 1
16 °FSunny.9 mph33%30.05 "Hg10 mi
1:53 PM16 °FSunny.15 mph33%30.03 "Hg10 mi
12:53 PM17 °FSunny.9 mph33%30.03 "Hg10 mi
11:53 AM17 °FSunny.14 mph37%30.03 "Hg10 mi
10:53 AM16 °FSunny.10 mph43%30.04 "Hg10 mi
9:53 AM14 °FSunny.12 mph47%30.04 "Hg10 mi
8:53 AM12 °FSunny.9 mph53%30.03 "Hg10 mi
7:53 AM8 °FSunny.8 mph60%30.02 "Hg10 mi
6:53 AM5 °FClear.5 mph66%30.00 "Hg10 mi
5:53 AM5 °FClear.6 mph63%29.98 "Hg10 mi
4:53 AM5 °FClear.5 mph60%29.96 "Hg10 mi
3:53 AM6 °FClear.7 mph57%29.95 "Hg10 mi
2:53 AM4 °FClear.6 mph54%29.93 "Hg10 mi
1:53 AM5 °FClear.6 mph47%29.93 "Hg10 mi
12:53 AM5 °FClear.10 mphN/A29.90 "Hg10 mi
11:53 PM
Jan 31
5 °FClear.8 mph52%29.90 "Hg10 mi
10:53 PM5 °FClear.10 mphN/A29.90 "Hg10 mi
9:53 PM5 °FClear.7 mph45%29.89 "Hg10 mi
8:53 PM4 °FClear.9 mph45%29.89 "Hg10 mi
7:53 PM5 °FClear.9 mph45%29.88 "Hg10 mi
6:53 PM7 °FClear.13 mphN/A29.88 "Hg10 mi
5:53 PM10 °FClear.13 mph45%29.85 "Hg10 mi
4:53 PM14 °FClear.18 mph47%29.81 "Hg10 mi
Weather by CustomWeather, © 2014

See weather overviewHow to use our weather pages